When you browse on this site, cookies collect data to enhance your experience and personalize the content and advertising you see.
Visit our Privacy Policy to learn more. By continuing to use the site, you agree to this use of cookies and data.
  • In Lithuania
  • List of Countries
  • For 7 days
  • Water Temperature
  • Satellite Maps
  • Weather Map
  • Weather Widgets
  • user-avatar
    Login

    Hourly Weather Sergeevka

    Today, 13 December, Thursday

    Time Temperature Precipitation Wind Pressure Humidity
    00:00 -3°C° 0 mm 7 mps 761 mmHg 78%
    01:00 -4°C° 0 mm 8 mps 761 mmHg 78%
    02:00 -3°C° 0 mm 7 mps 761 mmHg 80%
    03:00 -3°C° 0 mm 7 mps 761 mmHg 79%
    04:00 -4°C° 0 mm 8 mps 761 mmHg 78%
    05:00 -4°C° 0 mm 8 mps 761 mmHg 77%
    06:00 -4°C° 0 mm 8 mps 761 mmHg 76%
    07:00 -4°C° 0 mm 8 mps 761 mmHg 75%
    08:00 -4°C° 0 mm 8 mps 761 mmHg 74%
    09:00 -2°C° 0.1 mm 8 mps 761 mmHg 72%
    10:00 -1°C° 0.1 mm 8 mps 761 mmHg 70%
    11:00 0°C° 0.1 mm 8 mps 761 mmHg 68%
    12:00 0°C° 0.1 mm 8 mps 761 mmHg 67%
    13:00 0°C° 0.1 mm 8 mps 761 mmHg 67%
    14:00 0°C° 0.1 mm 8 mps 761 mmHg 66%
    15:00 0°C° 0 mm 7 mps 762 mmHg 68%
    16:00 -1°C° 0 mm 7 mps 762 mmHg 69%
    17:00 -1°C° 0 mm 7 mps 762 mmHg 71%
    18:00 -2°C° 0 mm 7 mps 762 mmHg 71%
    19:00 -2°C° 0 mm 7 mps 762 mmHg 71%
    20:00 -2°C° 0 mm 6 mps 763 mmHg 71%
    21:00 -2°C° 0 mm 6 mps 763 mmHg 73%
    22:00 -2°C° 0 mm 6 mps 763 mmHg 74%
    23:00 -3°C° 0 mm 6 mps 763 mmHg 76%

    Tomorrow, 14 December, Friday

    Time Temperature Precipitation Wind Pressure Humidity
    00:00 -2°C° 0 mm 5 mps 763 mmHg 80%
    01:00 -2°C° 0 mm 5 mps 764 mmHg 83%
    02:00 -2°C° 0 mm 5 mps 764 mmHg 87%
    03:00 -3°C° 0 mm 4 mps 764 mmHg 88%
    04:00 -3°C° 0 mm 4 mps 764 mmHg 89%
    05:00 -3°C° 0 mm 4 mps 764 mmHg 90%
    06:00 -3°C° 0 mm 4 mps 765 mmHg 90%
    07:00 -3°C° 0 mm 4 mps 765 mmHg 90%
    08:00 -3°C° 0 mm 4 mps 765 mmHg 90%
    09:00 -2°C° 0 mm 4 mps 766 mmHg 83%
    10:00 -1°C° 0 mm 4 mps 766 mmHg 77%
    11:00 0°C° 0 mm 4 mps 766 mmHg 71%
    12:00 +1°C° 0 mm 4 mps 766 mmHg 69%
    13:00 +1°C° 0 mm 4 mps 767 mmHg 67%
    14:00 +2°C° 0 mm 3 mps 767 mmHg 65%
    15:00 +1°C° 0 mm 3 mps 767 mmHg 70%
    16:00 0°C° 0 mm 3 mps 767 mmHg 75%
    17:00 -1°C° 0 mm 2 mps 767 mmHg 81%
    18:00 -1°C° 0 mm 2 mps 768 mmHg 83%
    19:00 -1°C° 0 mm 2 mps 768 mmHg 85%
    20:00 -2°C° 0 mm 2 mps 768 mmHg 86%
    21:00 -2°C° 0 mm 2 mps 769 mmHg 86%
    22:00 -2°C° 0 mm 2 mps 769 mmHg 86%
    23:00 -2°C° 0 mm 2 mps 769 mmHg 86%

    Day after tomorrow, 15 December, Saturday

    Time Temperature Precipitation Wind Pressure Humidity
    00:00 -2°C° 0 mm 2 mps 769 mmHg 86%
    01:00 -2°C° 0 mm 2 mps 769 mmHg 86%
    02:00 -2°C° 0 mm 3 mps 769 mmHg 85%
    03:00 -2°C° 0 mm 3 mps 769 mmHg 84%
    04:00 -2°C° 0 mm 3 mps 769 mmHg 83%
    05:00 -2°C° 0 mm 4 mps 769 mmHg 82%
    06:00 -2°C° 0.1 mm 4 mps 769 mmHg 81%
    07:00 -1°C° 0.1 mm 5 mps 769 mmHg 81%
    08:00 -2°C° 0.1 mm 6 mps 769 mmHg 81%
    09:00 -1°C° 0.2 mm 6 mps 769 mmHg 81%
    10:00 -1°C° 0.2 mm 7 mps 769 mmHg 80%
    11:00 0°C° 0.2 mm 7 mps 769 mmHg 80%
    12:00 0°C° 0.2 mm 8 mps 769 mmHg 81%
    13:00 0°C° 0.2 mm 8 mps 768 mmHg 82%
    14:00 +1°C° 0.2 mm 8 mps 768 mmHg 83%
    15:00 +1°C° 0.3 mm 8 mps 768 mmHg 84%
    16:00 +1°C° 0.3 mm 8 mps 768 mmHg 85%
    17:00 +1°C° 0.3 mm 9 mps 767 mmHg 86%
    18:00 +1°C° 0.2 mm 9 mps 767 mmHg 86%
    19:00 +1°C° 0.2 mm 9 mps 767 mmHg 86%
    20:00 +2°C° 0.2 mm 9 mps 767 mmHg 86%
    21:00 +2°C° 0.2 mm 9 mps 767 mmHg 87%
    22:00 +3°C° 0.2 mm 9 mps 766 mmHg 87%
    23:00 +3°C° 0.2 mm 9 mps 766 mmHg 88%

    16 December, Sunday

    Time Temperature Precipitation Wind Pressure Humidity
    00:00 +3°C° 0.6 mm 9 mps 766 mmHg 88%
    01:00 +5°C° 0.6 mm 9 mps 766 mmHg 88%
    02:00 +5°C° 0.6 mm 10 mps 765 mmHg 87%
    03:00 +5°C° 0.5 mm 10 mps 765 mmHg 88%
    04:00 +5°C° 0.5 mm 10 mps 765 mmHg 89%
    05:00 +5°C° 0.5 mm 10 mps 765 mmHg 90%
    06:00 +5°C° 0.1 mm 10 mps 765 mmHg 90%
    07:00 +5°C° 0.1 mm 10 mps 765 mmHg 89%
    08:00 +5°C° 0.1 mm 10 mps 765 mmHg 89%
    09:00 +6°C° 0.1 mm 10 mps 765 mmHg 86%
    10:00 +6°C° 0.1 mm 10 mps 765 mmHg 83%
    11:00 +6°C° 0.1 mm 10 mps 765 mmHg 79%
    12:00 +6°C° 0 mm 10 mps 765 mmHg 76%
    13:00 +6°C° 0 mm 10 mps 764 mmHg 73%
    14:00 +6°C° 0 mm 10 mps 764 mmHg 69%
    15:00 +5°C° 0 mm 10 mps 764 mmHg 70%
    16:00 +5°C° 0 mm 10 mps 764 mmHg 71%
    17:00 +3°C° 0 mm 10 mps 764 mmHg 72%
    18:00 +3°C° 0 mm 10 mps 764 mmHg 73%
    19:00 +2°C° 0 mm 10 mps 765 mmHg 74%
    20:00 +2°C° 0 mm 10 mps 765 mmHg 75%
    21:00 +2°C° 0 mm 9 mps 765 mmHg 77%
    22:00 +2°C° 0 mm 9 mps 765 mmHg 78%
    23:00 +2°C° 0 mm 9 mps 765 mmHg 80%

    17 December, Monday

    Time Temperature Precipitation Wind Pressure Humidity
    00:00 +1°C° 0 mm 9 mps 765 mmHg 81%
    01:00 +1°C° 0 mm 8 mps 765 mmHg 82%
    02:00 +1°C° 0 mm 8 mps 765 mmHg 83%
    03:00 0°C° 0 mm 8 mps 765 mmHg 84%
    04:00 0°C° 0 mm 8 mps 765 mmHg 85%
    05:00 0°C° 0 mm 8 mps 764 mmHg 86%
    06:00 0°C° 0 mm 8 mps 765 mmHg 85%
    07:00 0°C° 0 mm 8 mps 765 mmHg 85%
    08:00 0°C° 0 mm 8 mps 765 mmHg 85%
    09:00 0°C° 0 mm 8 mps 765 mmHg 84%
    10:00 0°C° 0 mm 8 mps 765 mmHg 82%
    11:00 0°C° 0 mm 7 mps 765 mmHg 81%
    12:00 0°C° 0 mm 7 mps 765 mmHg 80%
    13:00 0°C° 0 mm 7 mps 765 mmHg 79%
    14:00 0°C° 0 mm 7 mps 765 mmHg 78%
    15:00 0°C° 0 mm 7 mps 765 mmHg 78%
    16:00 0°C° 0 mm 7 mps 765 mmHg 79%
    17:00 -1°C° 0 mm 7 mps 765 mmHg 79%
    18:00 -1°C° 0.1 mm 7 mps 765 mmHg 80%
    19:00 -1°C° 0.1 mm 6 mps 765 mmHg 80%
    20:00 -1°C° 0.1 mm 6 mps 766 mmHg 80%
    21:00 -1°C° 0.1 mm 6 mps 766 mmHg 81%
    22:00 -1°C° 0.1 mm 6 mps 766 mmHg 81%
    23:00 -1°C° 0.1 mm 6 mps 766 mmHg 81%

    18 December, Tuesday

    Time Temperature Precipitation Wind Pressure Humidity
    00:00 -1°C° 0.1 mm 6 mps 766 mmHg 82%
    01:00 -2°C° 0.1 mm 6 mps 766 mmHg 82%
    02:00 -2°C° 0.1 mm 6 mps 766 mmHg 82%
    03:00 -2°C° 0 mm 6 mps 766 mmHg 82%
    04:00 -2°C° 0 mm 6 mps 766 mmHg 83%
    05:00 -2°C° 0 mm 6 mps 766 mmHg 83%
    06:00 -2°C° 0.1 mm 6 mps 766 mmHg 84%
    07:00 -2°C° 0.1 mm 6 mps 766 mmHg 84%
    08:00 -2°C° 0.1 mm 6 mps 766 mmHg 85%
    09:00 -2°C° 0.1 mm 6 mps 766 mmHg 84%
    10:00 -1°C° 0.1 mm 6 mps 766 mmHg 83%
    11:00 -1°C° 0.1 mm 6 mps 766 mmHg 83%
    12:00 -1°C° 0.1 mm 6 mps 766 mmHg 82%
    13:00 -1°C° 0.1 mm 6 mps 766 mmHg 81%
    14:00 -1°C° 0.1 mm 6 mps 766 mmHg 81%
    15:00 -1°C° 0.1 mm 6 mps 766 mmHg 82%
    16:00 -1°C° 0.1 mm 6 mps 766 mmHg 83%
    17:00 0°C° 0.1 mm 5 mps 766 mmHg 84%
    18:00 0°C° 0.3 mm 5 mps 766 mmHg 86%
    19:00 -1°C° 0.3 mm 5 mps 766 mmHg 87%
    20:00 -1°C° 0.3 mm 5 mps 766 mmHg 88%
    21:00 -1°C° 0.1 mm 4 mps 766 mmHg 89%
    22:00 -1°C° 0.1 mm 4 mps 766 mmHg 90%
    23:00 -1°C° 0.1 mm 4 mps 766 mmHg 91%
    Show more